Weather in Melbourne

United States     28°06′55″N   80°39′22″W
temp.,
°C
wind,
m/s
gust,
m/s
humid.,
%
clouds,
%
prec.,
mm/h
press.,
hPa
HPBL,
m
17 may, mon
mon1723:00+21ene49615 0.0 1022291
02:00+19e34665 0.0 102157
05:00+19e2369100 0.0 102042
08:00+22e256375 0.1 1021356
11:00+26e664598 0.1 10211789
14:00+27e664465 0.1 10211761
17:00+26e664934 0.0 10201852
20:00+23ene3658100 0.0 1021373
18 may, tue
tue1823:00+22e597548 0.2 1021537
02:00+21e4977100 0.3 1020309
05:00+21e3784100 0.3 1019220
08:00+22e4877100 0.9 1021497
11:00+26e7856100 0.6 10221473
14:00+28e774839 0.7 10211833
17:00+27ene675735 0.1 10201577
20:00+23ene597610 0.6 1020475
19 may, wed
wed1923:00+21e4108328 0.5 1021352
02:00+21ene4107933 0.9 1020301
05:00+21ene5108135 0.1 1019350
08:00+24e587334 0.2 1020992
11:00+27e785830 0.3 10211452
14:00+27e896439 2.8 10211320
17:00+26e8106337 2.1 10201374
20:00+23e711736 2.3 1021894
20 may, thu
thu2023:00+23e7117010 0.2 1022909
02:00+24e71061100 0.2 10211194
05:00+23e6106198 0.0 1021923
08:00+24e695786 0.1 10221305
11:00+25e8105691 0.1 10231624
14:00+26ene81051100 0.1 10231955
17:00+26ene9104990 0.1 10212008
20:00+23ene71163100 0.2 1022995
21 may, fri
fri2123:00+24ene71157100 0.1 10231228
02:00+23e7116586 0.3 1022878
05:00+23e611612 0.0 1022714
08:00+24ene71059100 0.1 10231642
11:00+27e810484 0.0 10241734
14:00+28ene894824 0.0 10241887
17:00+26ene8105590 0.3 10231715
20:00+24ene7105986 0.4 10231183